| time (UTC) | temp F | wind direction | speed knots | gust knots | rain 1hr in | rain 24hr in | rain mn in | humidity % | barometer mb |
| 20260504081502 | 43 | 324 | 0.0 | 0.0 | 0.00 | 0.00 | 0.00 | 75 | 1014.4 |
| 20260504044543 | 42 | 337 | 0.0 | 2.6 | 0.00 | 0.00 | 0.00 | 75 | 1015.3 |
| 20260504043042 | 42 | 322 | 0.9 | 2.6 | 0.00 | 0.00 | 0.00 | 75 | 1015.2 |
| 20260504041539 | 42 | 96 | 0.9 | 2.6 | 0.00 | 0.00 | 0.00 | 75 | 1015.2 |
| 20260504040058 | 42 | 354 | 0.9 | 1.7 | 0.00 | 0.00 | 0.00 | 70 | 1015.2 |
| 20260504034536 | 43 | 295 | 1.7 | 2.6 | 0.00 | 0.00 | 0.00 | 69 | 1015.3 |
| 20260504033035 | 43 | 71 | 0.9 | 2.6 | 0.00 | 0.00 | 0.00 | 66 | 1015.2 |
| 20260504031536 | 43 | 154 | 0.0 | 1.7 | 0.00 | 0.00 | 0.00 | 69 | 1015.3 |
| 20260504030032 | 43 | 141 | 0.0 | 1.7 | 0.00 | 0.00 | 0.00 | 68 | 1015.0 |
| 20260504024531 | 44 | 116 | 0.9 | 2.6 | 0.00 | 0.00 | 0.00 | 68 | 1015.1 |
| 20260504023031 | 44 | 254 | 0.9 | 1.7 | 0.00 | 0.00 | 0.00 | 64 | 1015.1 |
| 20260504021531 | 44 | 140 | 0.9 | 5.2 | 0.00 | 0.00 | 0.00 | 63 | 1015.1 |
| 20260504020031 | 46 | 48 | 0.9 | 3.5 | 0.00 | 0.00 | 0.00 | 65 | 1015.1 |
| 20260504014529 | 46 | 274 | 2.6 | 6.1 | 0.00 | 0.00 | 0.00 | 60 | 1014.8 |
| 20260504013029 | 47 | 274 | 1.7 | 3.5 | 0.00 | 0.00 | 0.00 | 57 | 1014.7 |
| 20260504011529 | 48 | 283 | 2.6 | 3.5 | 0.00 | 0.00 | 0.00 | 55 | 1014.5 |
| 20260504010030 | 49 | 264 | 0.9 | 3.5 | 0.00 | 0.00 | 0.00 | 53 | 1014.4 |
| 20260504004540 | 50 | 297 | 0.9 | 2.6 | 0.00 | 0.00 | 0.00 | 52 | 1014.4 |
| 20260504003027 | 50 | 259 | 1.7 | 7.0 | 0.00 | 0.00 | 0.00 | 48 | 1014.3 |
| 20260504001527 | 52 | 253 | 2.6 | 6.1 | 0.00 | 0.00 | 0.00 | 48 | 1014.2 |
| 20260504000027 | 54 | 287 | 0.9 | 3.5 | 0.00 | 0.00 | 0.00 | 42 | 1014.2 |
| 20260503234526 | 56 | 271 | 1.7 | 7.8 | 0.00 | 0.00 | 0.00 | 40 | 1014.1 |
| 20260503233026 | 57 | 337 | 0.9 | 4.3 | 0.00 | 0.00 | 0.00 | 40 | 1014.2 |
| 20260503231525 | 58 | 264 | 0.0 | 2.6 | 0.00 | 0.00 | 0.00 | 34 | 1014.2 |
| 20260503230024 | 58 | 273 | 4.3 | 8.7 | 0.00 | 0.00 | 0.00 | 33 | 1014.1 |
| 20260503224524 | 59 | 292 | 6.1 | 10.4 | 0.00 | 0.00 | 0.00 | 32 | 1014.1 |
| 20260503223024 | 60 | 256 | 5.2 | 9.6 | 0.00 | 0.00 | 0.00 | 31 | 1014.1 |
| 20260503221522 | 60 | 258 | 0.0 | 8.7 | 0.00 | 0.00 | 0.00 | 30 | 1013.9 |
| 20260503220022 | 61 | 256 | 0.0 | 11.3 | 0.00 | 0.00 | 0.00 | 31 | 1014.0 |
| 20260503214519 | 62 | 291 | 2.6 | 9.6 | 0.00 | 0.00 | 0.00 | 32 | 1014.1 |
| 20260503213020 | 63 | 318 | 5.2 | 11.3 | 0.00 | 0.00 | 0.00 | 29 | 1014.2 |
| 20260503211517 | 62 | 335 | 4.3 | 12.2 | 0.00 | 0.00 | 0.00 | 32 | 1014.2 |
| 20260503210015 | 61 | 258 | 4.3 | 13.9 | 0.00 | 0.00 | 0.00 | 31 | 1014.4 |
| 20260503204519 | 62 | 303 | 8.7 | 14.8 | 0.00 | 0.00 | 0.00 | 30 | 1014.4 |
| 20260503203015 | 62 | 332 | 7.8 | 19.1 | 0.00 | 0.00 | 0.00 | 31 | 1014.5 |
| 20260503201510 | 62 | 301 | 5.2 | 13.0 | 0.00 | 0.00 | 0.00 | 32 | 1014.8 |
| 20260503200009 | 61 | 327 | 7.8 | 15.6 | 0.00 | 0.00 | 0.00 | 32 | 1014.9 |
| 20260503194505 | 61 | 231 | 5.2 | 13.9 | 0.00 | 0.00 | 0.00 | 32 | 1015.2 |
| 20260503193010 | 60 | 328 | 6.1 | 11.3 | 0.00 | 0.00 | 0.00 | 34 | 1015.3 |
| 20260503191503 | 61 | 350 | 10.4 | 15.6 | 0.00 | 0.00 | 0.00 | 34 | 1015.6 |
| 20260503190001 | 62 | 249 | 2.6 | 10.4 | 0.00 | 0.00 | 0.00 | 31 | 1015.7 |
| 20260503184533 | 61 | 284 | 5.2 | 14.8 | 0.00 | 0.00 | 0.00 | 37 | 1016.0 |
| 20260503183029 | 60 | 260 | 7.0 | 16.5 | 0.00 | 0.00 | 0.00 | 36 | 1016.2 |
| 20260503181527 | 59 | 291 | 3.5 | 15.6 | 0.00 | 0.00 | 0.00 | 31 | 1016.3 |
| 20260503180027 | 59 | 348 | 9.6 | 15.6 | 0.00 | 0.00 | 0.00 | 35 | 1016.2 |
| 20260503174530 | 59 | 12 | 5.2 | 16.5 | 0.00 | 0.00 | 0.00 | 35 | 1016.3 |
| 20260503173025 | 59 | 269 | 7.8 | 18.2 | 0.00 | 0.00 | 0.00 | 32 | 1016.5 |
| 20260503171524 | 59 | 276 | 5.2 | 10.4 | 0.00 | 0.00 | 0.00 | 33 | 1016.7 |